Rosedale, VA (24280)

5:08 AM EDT on July 28, 2017 (GMT -0400)
Tazewell County | | Change Station

Elev 2651 ft 37.06 °N, 81.80 °W | Updated 13 minutes ago

Overcast
Overcast
67 °F
Feels Like 67 °F
N
0
Wind Variable Wind from North

Today
High -- | Low -- °F
--% Chance of Precip.
Yesterday
High -- | Low -- °F
Precip. -- in
Pressure 29.97 in
Visibility 1.0 miles
Clouds Overcast 100 ft
Dew Point 64 °F
Humidity 88%
Rainfall 0.00 in
Snow Depth Not available.
6:30 AM 8:37 PM
Waxing Crescent, 28% visible
METAR KJFZ 280855Z AUTO 00000KT 1SM BR OVC001 20/18 A2997 RMK AO2 VIS 1/4V5 T01950175
Pressure 29.97 in
Visibility 1.0 miles
Clouds Overcast 100 ft
Dew Point 64 °F
Humidity 88%
Rainfall 0.00 in
Snow Depth Not available.
6:30 AM 8:37 PM
Waxing Crescent, 28% visible
METAR KJFZ 280855Z AUTO 00000KT 1SM BR OVC001 20/18 A2997 RMK AO2 VIS 1/4V5 T01950175

Get Severe Weather Alerts

Thanks for signing up!

Be on the lookout for a verification email in your inbox.

You'll start receiving the daily forecast at 6 AM.

×

10-Day Weather Forecast

Almanac

Astronomy

Jul. 28, 2017 Rise Set
Actual Time
Civil Twilight
Nautical Twilight
Astronomical Twilight
Moon
Length of Visible Light
Length of Day
Tomorrow will be .
, % of the Moon is Illuminated

Today's Extremes

State Highs State Lows

Community

WunderPhotos

Category 6

Welcome to Category 6. This is the collective home for Weather Underground's featured writeups by Dr. Jeff Masters (right), Bob Henson (left), Chris Burt, and other regular contributors.

Nearby

Air Quality

  Air Quality AQ Index Pollutant
Not available.

Snow Depth

Station Depth Elevation

Earthquake Activity

City Distance Mag. Time & Date
Minimum magnitude displayed is 2.5.

Coastal Water Temperatures

Place Temperature

Stations

Nearby Weather Stations

Station Location Temp. Windchill Dew Point Humidity Wind Precip. Elev Updated Type
                   

Watches & Warnings

There are currently no watches in effect.